Simultaneous Nadir Overpasses (SNOs) Predictions

Prediction of SNOs near US between NOAA-19 and NPP Satellite Orbit:

Table of predicted SNOs near US for the next 10.0 days since TLE Epoch: 1/9/2012
Index Date (NOAA-19) Time (NOAA-19) NOAA-19 Lat,Lon Date (NPP) Time (NPP) NPP Lat,Lon Distance(km) Time Diff (sec)
1 01/15/2012 06:13:56 31.75, -65.02 01/15/2012 06:14:57 32.22, -67.08 200.32 61
2 01/15/2012 07:50:47 49.92, -84.13 01/15/2012 07:51:15 50.30, -86.09 145.94 28
3 01/15/2012 09:32:59 49.55,-109.82 01/15/2012 09:32:52 49.89,-111.65 136.72 7
4 01/15/2012 17:41:06 49.99, -72.95 01/15/2012 17:38:07 49.85, -73.77 60.99 179
5 01/15/2012 19:23:11 49.96, -98.46 01/15/2012 19:19:37 49.86, -99.15 50.86 214
6 01/15/2012 21:05:17 49.99,-123.99 01/15/2012 21:01:07 49.88,-124.53 40.50 250
7 01/16/2012 07:47:52
